Time,TemperatureF,DewpointF,PressureIn,WindDirection,WindDirectionDegrees,WindSpeedMPH,WindSpeedGustMPH,Humidity,HourlyPrecipIn,Conditions,Clouds,dailyrainin,SolarRadiationWatts/m^2,SoftwareType,DateUTC
2013-05-06 00:01:00,43.1,37.4,30.25,East,81,0.0,0.0,80,0.00,,---,0.00,0.00,VWS V14.01,2013-05-06 04:01:00,
2013-05-06 00:06:00,42.7,37.6,30.26,East,81,0.0,0.0,82,0.00,,---,0.00,0.00,VWS V14.01,2013-05-06 04:06:00,
2013-05-06 00:11:00,42.7,37.6,30.25,SSE,149,0.0,3.0,82,0.00,,---,0.00,0.00,VWS V14.01,2013-05-06 04:11:00,
2013-05-06 00:16:00,42.2,37.1,30.25,SSE,149,0.0,0.0,82,0.00,,---,0.00,0.00,VWS V14.01,2013-05-06 04:16:00,
2013-05-06 00:21:00,41.8,37.0,30.25,SSE,149,0.0,0.0,83,0.00,,---,0.00,0.00,VWS V14.01,2013-05-06 04:21:00,
2013-05-06 00:26:00,41.5,37.0,30.26,SSE,149,0.0,0.0,84,0.00,,---,0.00,0.00,VWS V14.01,2013-05-06 04:26:00,
2013-05-06 00:31:00,41.2,36.7,30.26,SSE,149,1.0,1.0,84,0.00,,---,0.00,0.00,VWS V14.01,2013-05-06 04:31:00,
2013-05-06 00:36:00,41.1,36.6,30.25,SSE,149,0.0,1.0,84,0.00,,---,0.00,0.00,VWS V14.01,2013-05-06 04:36:00,
2013-05-06 00:41:00,41.1,36.6,30.25,SSE,149,0.0,1.0,84,0.00,,---,0.00,0.00,VWS V14.01,2013-05-06 04:41:00,
2013-05-06 00:46:00,40.8,36.7,30.25,SSE,149,0.0,0.0,85,0.00,,---,0.00,0.00,VWS V14.01,2013-05-06 04:46:00,
2013-05-06 00:51:00,40.5,36.3,30.25,SSE,149,0.0,0.0,85,0.00,,---,0.00,0.00,VWS V14.01,2013-05-06 04:51:00,
2013-05-06 00:56:00,40.4,36.5,30.25,SSE,149,0.0,0.0,86,0.00,,---,0.00,0.00,VWS V14.01,2013-05-06 04:56:00,
2013-05-06 01:01:00,40.4,36.5,30.25,SSE,149,0.0,0.0,86,0.00,,---,0.00,0.00,VWS V14.01,2013-05-06 05:01:00,
2013-05-06 01:06:00,40.2,36.3,30.25,SSE,149,0.0,0.0,86,0.00,,---,0.00,0.00,VWS V14.01,2013-05-06 05:06:00,
2013-05-06 01:11:00,40.2,36.7,30.25,SSE,149,0.0,0.0,87,0.00,,---,0.00,0.00,VWS V14.01,2013-05-06 05:11:00,
2013-05-06 01:16:00,40.0,36.5,30.25,SSE,149,0.0,0.0,87,0.00,,---,0.00,0.00,VWS V14.01,2013-05-06 05:16:00,
2013-05-06 01:21:00,39.7,36.4,30.25,SSE,149,0.0,0.0,88,0.00,,---,0.00,0.00,VWS V14.01,2013-05-06 05:21:00,
2013-05-06 01:26:00,39.5,36.2,30.25,SSE,149,0.0,0.0,88,0.00,,---,0.00,0.00,VWS V14.01,2013-05-06 05:26:00,
2013-05-06 01:31:00,39.4,36.2,30.24,SSE,149,0.0,0.0,88,0.00,,---,0.00,0.00,VWS V14.01,2013-05-06 05:31:00,
2013-05-06 01:36:00,39.1,35.8,30.25,SSE,149,0.0,0.0,88,0.00,,---,0.00,0.00,VWS V14.01,2013-05-06 05:36:00,
2013-05-06 01:41:00,39.0,36.0,30.24,SSE,149,0.0,0.0,89,0.00,,---,0.00,0.00,VWS V14.01,2013-05-06 05:41:00,
2013-05-06 01:46:00,39.2,36.2,30.25,SSE,149,0.0,0.0,89,0.00,,---,0.00,0.00,VWS V14.01,2013-05-06 05:46:00,
2013-05-06 01:51:00,39.1,36.1,30.25,SSE,149,0.0,0.0,89,0.00,,---,0.00,0.00,VWS V14.01,2013-05-06 05:51:00,
2013-05-06 01:56:00,39.0,36.0,30.25,SSE,149,0.0,0.0,89,0.00,,---,0.00,0.00,VWS V14.01,2013-05-06 05:56:00,
2013-05-06 02:01:00,38.7,35.7,30.24,SSE,149,0.0,0.0,89,0.00,,---,0.00,0.00,VWS V14.01,2013-05-06 06:01:00,
2013-05-06 02:06:00,38.4,35.5,30.24,SSE,149,0.0,0.0,89,0.00,,---,0.00,0.00,VWS V14.01,2013-05-06 06:06:00,
2013-05-06 02:11:00,38.1,35.2,30.24,SSE,149,0.0,0.0,89,0.00,,---,0.00,0.00,VWS V14.01,2013-05-06 06:11:00,
2013-05-06 02:16:00,38.1,35.4,30.24,SSE,149,0.0,0.0,90,0.00,,---,0.00,0.00,VWS V14.01,2013-05-06 06:16:00,
2013-05-06 02:21:00,37.8,35.1,30.24,SSE,149,0.0,0.0,90,0.00,,---,0.00,0.00,VWS V14.01,2013-05-06 06:21:00,
2013-05-06 02:26:00,37.8,35.4,30.24,SSE,149,0.0,0.0,91,0.00,,---,0.00,0.00,VWS V14.01,2013-05-06 06:26:00,
2013-05-06 02:31:00,37.7,35.3,30.24,SSE,149,0.0,0.0,91,0.00,,---,0.00,0.00,VWS V14.01,2013-05-06 06:31:00,
2013-05-06 02:36:00,37.7,35.3,30.23,SSE,149,0.0,0.0,91,0.00,,---,0.00,0.00,VWS V14.01,2013-05-06 06:36:00,
2013-05-06 02:41:00,37.5,35.1,30.23,SSE,149,0.0,0.0,91,0.00,,---,0.00,0.00,VWS V14.01,2013-05-06 06:41:00,
2013-05-06 02:46:00,37.2,34.8,30.23,SSE,149,0.0,0.0,91,0.00,,---,0.00,0.00,VWS V14.01,2013-05-06 06:46:00,
2013-05-06 02:51:00,37.2,34.8,30.23,SSE,149,0.0,0.0,91,0.00,,---,0.00,0.00,VWS V14.01,2013-05-06 06:51:00,
2013-05-06 02:56:00,37.4,35.3,30.23,SSE,149,0.0,0.0,92,0.00,,---,0.00,0.00,VWS V14.01,2013-05-06 06:56:00,
2013-05-06 03:01:00,37.7,35.6,30.23,SSE,149,0.0,0.0,92,0.00,,---,0.00,0.00,VWS V14.01,2013-05-06 07:01:00,
2013-05-06 03:06:00,37.8,35.4,30.23,SSE,149,0.0,0.0,91,0.00,,---,0.00,0.00,VWS V14.01,2013-05-06 07:06:00,
2013-05-06 03:11:00,37.4,35.0,30.22,SSE,149,0.0,0.0,91,0.00,,---,0.00,0.00,VWS V14.01,2013-05-06 07:11:00,
2013-05-06 03:16:00,37.2,34.8,30.22,SSE,149,0.0,0.0,91,0.00,,---,0.00,0.00,VWS V14.01,2013-05-06 07:16:00,
2013-05-06 03:21:00,36.8,34.4,30.22,SSE,149,0.0,0.0,91,0.00,,---,0.00,0.00,VWS V14.01,2013-05-06 07:21:00,
2013-05-06 03:26:00,36.5,34.1,30.22,SSE,149,0.0,0.0,91,0.00,,---,0.00,0.00,VWS V14.01,2013-05-06 07:26:00,
2013-05-06 03:32:00,36.4,34.3,30.22,SSE,149,0.0,0.0,92,0.00,,---,0.00,0.00,VWS V14.01,2013-05-06 07:32:00,
2013-05-06 03:37:00,36.4,34.3,30.22,SSE,149,0.0,0.0,92,0.00,,---,0.00,0.00,VWS V14.01,2013-05-06 07:37:00,
2013-05-06 03:42:00,36.4,34.3,30.22,SSE,149,0.0,0.0,92,0.00,,---,0.00,0.00,VWS V14.01,2013-05-06 07:42:00,
2013-05-06 03:47:00,36.4,34.3,30.22,SSE,149,0.0,0.0,92,0.00,,---,0.00,0.00,VWS V14.01,2013-05-06 07:47:00,
2013-05-06 03:52:00,36.1,34.0,30.22,SSE,149,0.0,0.0,92,0.00,,---,0.00,0.00,VWS V14.01,2013-05-06 07:52:00,
2013-05-06 03:57:00,36.2,34.4,30.22,SSE,149,0.0,0.0,93,0.00,,---,0.00,0.00,VWS V14.01,2013-05-06 07:57:00,
2013-05-06 04:02:00,36.4,34.6,30.23,SSE,149,0.0,0.0,93,0.00,,---,0.00,0.00,VWS V14.01,2013-05-06 08:02:00,
2013-05-06 04:07:00,36.4,34.6,30.23,SSE,149,0.0,0.0,93,0.00,,---,0.00,0.00,VWS V14.01,2013-05-06 08:07:00,
2013-05-06 04:12:00,36.5,34.7,30.22,SSE,149,0.0,0.0,93,0.00,,---,0.00,0.00,VWS V14.01,2013-05-06 08:12:00,
2013-05-06 04:17:00,36.5,34.7,30.22,SSE,149,0.0,0.0,93,0.00,,---,0.00,0.00,VWS V14.01,2013-05-06 08:17:00,
2013-05-06 04:22:00,36.5,34.7,30.22,SSE,149,0.0,0.0,93,0.00,,---,0.00,0.00,VWS V14.01,2013-05-06 08:22:00,
2013-05-06 04:27:00,36.4,34.6,30.23,SSE,149,0.0,0.0,93,0.00,,---,0.00,0.00,VWS V14.01,2013-05-06 08:27:00,
2013-05-06 04:32:00,36.2,34.4,30.22,SSE,149,0.0,0.0,93,0.00,,---,0.00,0.00,VWS V14.01,2013-05-06 08:32:00,
2013-05-06 04:37:00,36.2,34.4,30.23,SSE,149,0.0,0.0,93,0.00,,---,0.00,0.00,VWS V14.01,2013-05-06 08:37:00,
2013-05-06 04:42:00,35.9,34.1,30.23,SSE,149,0.0,0.0,93,0.00,,---,0.00,0.00,VWS V14.01,2013-05-06 08:42:00,
2013-05-06 04:47:00,35.8,34.0,30.23,SSE,149,0.0,0.0,93,0.00,,---,0.00,0.00,VWS V14.01,2013-05-06 08:47:00,
2013-05-06 04:52:00,35.8,34.0,30.23,SSE,149,0.0,0.0,93,0.00,,---,0.00,0.00,VWS V14.01,2013-05-06 08:52:00,
2013-05-06 04:57:00,35.8,34.0,30.23,SSE,149,0.0,0.0,93,0.00,,---,0.00,0.00,VWS V14.01,2013-05-06 08:57:00,
2013-05-06 05:02:00,35.7,33.9,30.23,SSE,149,0.0,0.0,93,0.00,,---,0.00,0.00,VWS V14.01,2013-05-06 09:02:00,
2013-05-06 05:07:00,35.5,33.7,30.24,SSE,149,0.0,0.0,93,0.00,,---,0.00,0.00,VWS V14.01,2013-05-06 09:07:00,
2013-05-06 05:12:00,35.4,33.8,30.24,SSE,149,0.0,0.0,94,0.00,,---,0.00,0.00,VWS V14.01,2013-05-06 09:12:00,
2013-05-06 05:17:00,35.1,33.3,30.24,SSE,149,0.0,0.0,93,0.00,,---,0.00,0.00,VWS V14.01,2013-05-06 09:17:00,
2013-05-06 05:22:00,34.8,33.0,30.24,SSE,149,0.0,0.0,93,0.00,,---,0.00,0.00,VWS V14.01,2013-05-06 09:22:00,
2013-05-06 05:27:00,34.8,33.2,30.24,SSE,149,0.0,0.0,94,0.00,,---,0.00,0.00,VWS V14.01,2013-05-06 09:27:00,
2013-05-06 05:32:00,34.6,33.0,30.24,SSE,149,0.0,0.0,94,0.00,,---,0.00,0.00,VWS V14.01,2013-05-06 09:32:00,
2013-05-06 05:37:00,34.3,32.8,30.24,SSE,149,0.0,0.0,94,0.00,,---,0.00,0.00,VWS V14.01,2013-05-06 09:37:00,
2013-05-06 05:42:00,34.3,32.8,30.24,SSE,149,0.0,0.0,94,0.00,,---,0.00,5.00,VWS V14.01,2013-05-06 09:42:00,
2013-05-06 05:47:00,34.3,32.8,30.25,SSE,149,0.0,0.0,94,0.00,,---,0.00,7.00,VWS V14.01,2013-05-06 09:47:00,
2013-05-06 05:52:00,34.2,32.7,30.25,SSE,149,0.0,0.0,94,0.00,,---,0.00,11.00,VWS V14.01,2013-05-06 09:52:00,
2013-05-06 05:57:00,34.3,32.8,30.25,SSE,149,0.0,0.0,94,0.00,,---,0.00,12.00,VWS V14.01,2013-05-06 09:57:00,
2013-05-06 06:02:00,34.3,32.8,30.25,SSE,149,0.0,0.0,94,0.00,,---,0.00,16.00,VWS V14.01,2013-05-06 10:02:00,
2013-05-06 06:07:00,34.3,33.0,30.25,SSE,149,0.0,0.0,95,0.00,,---,0.00,18.00,VWS V14.01,2013-05-06 10:07:00,
2013-05-06 06:12:00,34.6,33.3,30.25,SSE,149,0.0,0.0,95,0.00,,---,0.00,21.00,VWS V14.01,2013-05-06 10:12:00,
2013-05-06 06:17:00,34.8,33.5,30.25,SSE,149,0.0,0.0,95,0.00,,---,0.00,25.00,VWS V14.01,2013-05-06 10:17:00,
2013-05-06 06:22:00,34.8,33.5,30.25,SSE,149,0.0,0.0,95,0.00,,---,0.00,26.00,VWS V14.01,2013-05-06 10:22:00,
2013-05-06 06:27:00,34.8,33.5,30.25,SSE,149,0.0,0.0,95,0.00,,---,0.00,28.00,VWS V14.01,2013-05-06 10:27:00,
2013-05-06 06:32:00,34.9,33.6,30.25,SSE,149,0.0,0.0,95,0.00,,---,0.00,32.00,VWS V14.01,2013-05-06 10:32:00,
2013-05-06 06:37:00,35.1,33.8,30.25,SSE,149,0.0,0.0,95,0.00,,---,0.00,30.00,VWS V14.01,2013-05-06 10:37:00,
2013-05-06 06:42:00,35.2,33.9,30.25,SSE,149,0.0,0.0,95,0.00,,---,0.00,33.00,VWS V14.01,2013-05-06 10:42:00,
2013-05-06 06:47:00,35.5,34.2,30.25,SSE,149,0.0,0.0,95,0.00,,---,0.00,33.00,VWS V14.01,2013-05-06 10:47:00,
2013-05-06 06:52:00,35.8,34.8,30.25,SSE,149,0.0,0.0,96,0.00,,---,0.00,54.00,VWS V14.01,2013-05-06 10:52:00,
2013-05-06 06:57:00,36.1,34.8,30.25,SSE,149,0.0,0.0,95,0.00,,---,0.00,62.00,VWS V14.01,2013-05-06 10:57:00,
2013-05-06 07:02:00,36.8,35.8,30.25,SSE,149,0.0,0.0,96,0.00,,---,0.00,40.00,VWS V14.01,2013-05-06 11:02:00,
2013-05-06 07:07:00,37.5,36.5,30.25,SSE,149,0.0,0.0,96,0.00,,---,0.00,42.00,VWS V14.01,2013-05-06 11:07:00,
2013-05-06 07:12:00,38.4,37.4,30.25,SSE,149,0.0,0.0,96,0.00,,---,0.00,44.00,VWS V14.01,2013-05-06 11:12:00,
2013-05-06 07:17:00,39.4,38.4,30.25,SSE,149,0.0,0.0,96,0.00,,---,0.00,44.00,VWS V14.01,2013-05-06 11:17:00,
2013-05-06 07:22:00,39.7,38.4,30.25,SSE,149,0.0,0.0,95,0.00,,---,0.00,46.00,VWS V14.01,2013-05-06 11:22:00,
2013-05-06 07:27:00,39.5,37.9,30.25,SSE,149,0.0,0.0,94,0.00,,---,0.00,47.00,VWS V14.01,2013-05-06 11:27:00,
2013-05-06 07:32:00,39.5,37.7,30.25,SSE,149,0.0,0.0,93,0.00,,---,0.00,51.00,VWS V14.01,2013-05-06 11:32:00,
2013-05-06 07:37:00,39.5,37.1,30.25,SSE,149,0.0,0.0,91,0.00,,---,0.00,49.00,VWS V14.01,2013-05-06 11:37:00,
2013-05-06 07:42:00,40.0,37.6,30.25,SSE,149,0.0,0.0,91,0.00,,---,0.00,54.00,VWS V14.01,2013-05-06 11:42:00,
2013-05-06 07:47:00,40.4,37.7,30.25,SSE,149,0.0,0.0,90,0.00,,---,0.00,54.00,VWS V14.01,2013-05-06 11:47:00,
2013-05-06 07:52:00,41.2,38.5,30.25,SSE,149,0.0,0.0,90,0.00,,---,0.00,72.00,VWS V14.01,2013-05-06 11:52:00,
2013-05-06 07:57:00,42.0,38.4,30.25,SSE,149,0.0,0.0,87,0.00,,---,0.00,77.00,VWS V14.01,2013-05-06 11:57:00,
2013-05-06 08:02:00,42.7,38.5,30.25,SSE,149,0.0,0.0,85,0.00,,---,0.00,104.00,VWS V14.01,2013-05-06 12:02:00,
2013-05-06 08:07:00,43.4,38.9,30.24,SSE,148,0.0,0.0,84,0.00,,---,0.00,381.00,VWS V14.01,2013-05-06 12:07:00,
2013-05-06 08:12:00,45.0,39.8,30.24,SSE,149,0.0,0.0,82,0.00,,---,0.00,401.00,VWS V14.01,2013-05-06 12:12:00,
2013-05-06 08:17:00,46.0,39.9,30.25,SSE,149,0.0,0.0,79,0.00,,---,0.00,424.00,VWS V14.01,2013-05-06 12:17:00,
2013-05-06 08:22:00,47.2,40.7,30.25,SSE,149,0.0,0.0,78,0.00,,---,0.00,455.00,VWS V14.01,2013-05-06 12:22:00,
2013-05-06 08:27:00,48.1,40.9,30.25,SSE,149,0.0,0.0,76,0.00,,---,0.00,471.00,VWS V14.01,2013-05-06 12:27:00,
2013-05-06 08:32:00,49.0,41.1,30.25,SSE,149,0.0,0.0,74,0.00,,---,0.00,483.00,VWS V14.01,2013-05-06 12:32:00,
2013-05-06 08:37:00,49.7,40.7,30.25,SSE,149,0.0,0.0,71,0.00,,---,0.00,503.00,VWS V14.01,2013-05-06 12:37:00,
2013-05-06 08:42:00,50.4,41.4,30.25,SSE,149,0.0,0.0,71,0.00,,---,0.00,519.00,VWS V14.01,2013-05-06 12:42:00,
2013-05-06 08:47:00,51.3,43.0,30.25,SSE,149,0.0,0.0,73,0.00,,---,0.00,533.00,VWS V14.01,2013-05-06 12:47:00,
2013-05-06 08:52:00,51.2,41.0,30.25,SSE,149,0.0,0.0,68,0.00,,---,0.00,550.00,VWS V14.01,2013-05-06 12:52:00,
2013-05-06 08:57:00,51.3,41.1,30.25,SSE,148,0.0,1.0,68,0.00,,---,0.00,566.00,VWS V14.01,2013-05-06 12:57:00,
2013-05-06 09:02:00,52.2,40.8,30.25,South,176,0.0,0.0,65,0.00,,---,0.00,587.00,VWS V14.01,2013-05-06 13:02:00,
2013-05-06 09:07:00,52.7,40.9,30.25,SSE,161,0.0,5.0,64,0.00,,---,0.00,599.00,VWS V14.01,2013-05-06 13:07:00,
2013-05-06 09:12:00,53.1,40.0,30.25,SSE,157,0.0,5.0,61,0.00,,---,0.00,621.00,VWS V14.01,2013-05-06 13:12:00,
2013-05-06 09:17:00,53.7,37.9,30.25,SSE,151,5.0,6.0,55,0.00,,---,0.00,635.00,VWS V14.01,2013-05-06 13:17:00,
2013-05-06 09:22:00,54.0,38.7,30.25,ESE,120,0.0,7.0,56,0.00,,---,0.00,649.00,VWS V14.01,2013-05-06 13:22:00,
2013-05-06 09:27:00,54.6,36.8,30.25,NW,315,4.0,7.0,51,0.00,,---,0.00,663.00,VWS V14.01,2013-05-06 13:27:00,
2013-05-06 09:32:00,55.6,37.3,30.25,NW,306,0.0,1.0,50,0.00,,---,0.00,679.00,VWS V14.01,2013-05-06 13:32:00,
2013-05-06 09:37:00,55.8,35.9,30.25,SW,219,0.0,4.0,47,0.00,,---,0.00,691.00,VWS V14.01,2013-05-06 13:37:00,
2013-05-06 09:42:00,55.8,36.4,30.25,SW,216,0.0,4.0,48,0.00,,---,0.00,703.00,VWS V14.01,2013-05-06 13:42:00,
2013-05-06 09:47:00,55.6,35.7,30.25,SE,142,1.0,4.0,47,0.00,,---,0.00,721.00,VWS V14.01,2013-05-06 13:47:00,
2013-05-06 09:52:00,55.8,36.9,30.25,SE,132,5.0,6.0,49,0.00,,---,0.00,735.00,VWS V14.01,2013-05-06 13:52:00,
2013-05-06 09:57:00,55.8,38.5,30.25,SE,142,1.0,6.0,52,0.00,,---,0.00,745.00,VWS V14.01,2013-05-06 13:57:00,
2013-05-06 10:02:00,56.1,37.7,30.25,SSE,152,0.0,0.0,50,0.00,,---,0.00,758.00,VWS V14.01,2013-05-06 14:02:00,
2013-05-06 10:07:00,56.5,37.6,30.26,ESE,121,0.0,4.0,49,0.00,,---,0.00,772.00,VWS V14.01,2013-05-06 14:07:00,
2013-05-06 10:12:00,56.9,37.4,30.26,SSW,199,0.0,4.0,48,0.00,,---,0.00,784.00,VWS V14.01,2013-05-06 14:12:00,
2013-05-06 10:17:00,57.5,38.0,30.25,SSE,151,2.0,6.0,48,0.00,,---,0.00,798.00,VWS V14.01,2013-05-06 14:17:00,
2013-05-06 10:22:00,57.9,37.8,30.25,SSE,151,0.0,6.0,47,0.00,,---,0.00,807.00,VWS V14.01,2013-05-06 14:22:00,
2013-05-06 10:27:00,58.6,40.0,30.25,SSE,147,1.0,6.0,50,0.00,,---,0.00,823.00,VWS V14.01,2013-05-06 14:27:00,
2013-05-06 10:32:00,58.6,36.2,30.25,SE,128,3.0,4.0,43,0.00,,---,0.00,833.00,VWS V14.01,2013-05-06 14:32:00,
2013-05-06 10:37:00,58.6,37.3,30.25,SE,146,0.0,4.0,45,0.00,,---,0.00,844.00,VWS V14.01,2013-05-06 14:37:00,
2013-05-06 10:42:00,58.6,35.6,30.25,ESE,105,3.0,4.0,42,0.00,,---,0.00,854.00,VWS V14.01,2013-05-06 14:42:00,
2013-05-06 10:47:00,59.1,36.7,30.25,SE,130,7.0,7.0,43,0.00,,---,0.00,865.00,VWS V14.01,2013-05-06 14:47:00,
2013-05-06 10:52:00,58.9,38.2,30.25,ESE,121,1.0,7.0,46,0.00,,---,0.00,874.00,VWS V14.01,2013-05-06 14:52:00,
2013-05-06 10:57:00,60.1,37.5,30.25,NE,53,1.0,7.0,43,0.00,,---,0.00,886.00,VWS V14.01,2013-05-06 14:57:00,
2013-05-06 11:02:00,60.8,36.3,30.25,ESE,116,4.0,4.0,40,0.00,,---,0.00,895.00,VWS V14.01,2013-05-06 15:02:00,
2013-05-06 11:07:00,61.1,37.2,30.25,SE,134,1.0,4.0,41,0.00,,---,0.00,904.00,VWS V14.01,2013-05-06 15:07:00,
2013-05-06 11:12:00,61.5,41.1,30.24,WSW,257,2.0,4.0,47,0.00,,---,0.00,912.00,VWS V14.01,2013-05-06 15:12:00,
2013-05-06 11:17:00,62.6,41.0,30.24,ESE,121,2.0,3.0,45,0.00,,---,0.00,921.00,VWS V14.01,2013-05-06 15:17:00,
2013-05-06 11:22:00,62.5,34.5,30.24,SSE,147,5.0,5.0,35,0.00,,---,0.00,930.00,VWS V14.01,2013-05-06 15:22:00,
2013-05-06 11:27:00,61.7,39.0,30.23,SE,146,0.0,6.0,43,0.00,,---,0.00,935.00,VWS V14.01,2013-05-06 15:27:00,
2013-05-06 11:32:00,62.6,36.0,30.24,SE,146,0.0,0.0,37,0.00,,---,0.00,946.00,VWS V14.01,2013-05-06 15:32:00,
2013-05-06 11:37:00,63.0,35.7,30.23,SSW,197,1.0,6.0,36,0.00,,---,0.00,951.00,VWS V14.01,2013-05-06 15:37:00,
2013-05-06 11:42:00,63.0,37.7,30.23,WSW,258,3.0,6.0,39,0.00,,---,0.00,956.00,VWS V14.01,2013-05-06 15:42:00,
2013-05-06 11:47:00,63.6,33.2,30.22,West,281,0.0,0.0,32,0.00,,---,0.00,960.00,VWS V14.01,2013-05-06 15:47:00,
2013-05-06 11:52:00,64.6,37.1,30.22,SW,236,0.0,3.0,36,0.00,,---,0.00,965.00,VWS V14.01,2013-05-06 15:52:00,
2013-05-06 11:57:00,64.2,39.4,30.22,ESE,103,0.0,4.0,40,0.00,,---,0.00,974.00,VWS V14.01,2013-05-06 15:57:00,
2013-05-06 12:02:00,64.2,36.0,30.22,SSW,199,0.0,0.0,35,0.00,,---,0.00,977.00,VWS V14.01,2013-05-06 16:02:00,
2013-05-06 12:07:00,65.5,37.2,30.21,SE,135,4.0,8.0,35,0.00,,---,0.00,983.00,VWS V14.01,2013-05-06 16:07:00,
2013-05-06 12:12:00,65.9,37.5,30.21,ESE,121,0.0,8.0,35,0.00,,---,0.00,986.00,VWS V14.01,2013-05-06 16:12:00,
2013-05-06 12:17:00,65.7,35.1,30.21,ESE,107,0.0,3.0,32,0.00,,---,0.00,990.00,VWS V14.01,2013-05-06 16:17:00,
2013-05-06 12:22:00,65.5,34.1,30.21,ESE,121,0.0,7.0,31,0.00,,---,0.00,997.00,VWS V14.01,2013-05-06 16:22:00,
2013-05-06 12:27:00,65.5,32.4,30.20,SE,145,3.0,7.0,29,0.00,,---,0.00,1000.00,VWS V14.01,2013-05-06 16:27:00,
2013-05-06 12:32:00,66.2,30.3,30.20,SSW,212,0.0,1.0,26,0.00,,---,0.00,993.00,VWS V14.01,2013-05-06 16:32:00,
2013-05-06 12:37:00,66.3,33.1,30.20,South,187,4.0,5.0,29,0.00,,---,0.00,998.00,VWS V14.01,2013-05-06 16:37:00,
2013-05-06 12:42:00,66.8,31.8,30.20,SW,230,1.0,5.0,27,0.00,,---,0.00,1005.00,VWS V14.01,2013-05-06 16:42:00,
2013-05-06 12:47:00,66.8,31.8,30.20,SE,137,1.0,4.0,27,0.00,,---,0.00,1005.00,VWS V14.01,2013-05-06 16:47:00,
2013-05-06 12:52:00,67.0,33.7,30.20,SE,132,0.0,6.0,29,0.00,,---,0.00,1005.00,VWS V14.01,2013-05-06 16:52:00,
2013-05-06 12:57:00,67.2,33.0,30.20,South,173,2.0,7.0,28,0.00,,---,0.00,1005.00,VWS V14.01,2013-05-06 16:57:00,
2013-05-06 13:02:00,67.5,31.4,30.19,South,175,0.0,0.0,26,0.00,,---,0.00,1005.00,VWS V14.01,2013-05-06 17:02:00,
2013-05-06 13:07:00,67.2,32.1,30.19,ESE,111,1.0,7.0,27,0.00,,---,0.00,1000.00,VWS V14.01,2013-05-06 17:07:00,
2013-05-06 13:13:00,67.8,32.6,30.19,South,191,3.0,7.0,27,0.00,,---,0.00,1000.00,VWS V14.01,2013-05-06 17:13:00,
2013-05-06 13:18:00,67.5,31.4,30.19,ESE,117,0.0,4.0,26,0.00,,---,0.00,1002.00,VWS V14.01,2013-05-06 17:18:00,
2013-05-06 13:23:00,68.2,33.0,30.19,SSE,159,0.0,5.0,27,0.00,,---,0.00,995.00,VWS V14.01,2013-05-06 17:23:00,
2013-05-06 13:28:00,69.2,33.8,30.18,SSE,155,2.0,5.0,27,0.00,,---,0.00,991.00,VWS V14.01,2013-05-06 17:28:00,
2013-05-06 13:33:00,69.0,31.8,30.18,SSW,203,0.0,2.0,25,0.00,,---,0.00,995.00,VWS V14.01,2013-05-06 17:33:00,
2013-05-06 13:38:00,70.5,29.9,30.18,SE,145,0.0,2.0,22,0.00,,---,0.00,993.00,VWS V14.01,2013-05-06 17:38:00,
2013-05-06 13:43:00,69.7,31.3,30.18,SSE,151,0.0,6.0,24,0.00,,---,0.00,991.00,VWS V14.01,2013-05-06 17:43:00,
2013-05-06 13:48:00,68.7,30.5,30.18,ESE,106,0.0,1.0,24,0.00,,---,0.00,984.00,VWS V14.01,2013-05-06 17:48:00,
2013-05-06 13:53:00,69.0,33.7,30.18,SE,131,4.0,4.0,27,0.00,,---,0.00,977.00,VWS V14.01,2013-05-06 17:53:00,
2013-05-06 13:58:00,68.5,33.2,30.18,SE,125,0.0,4.0,27,0.00,,---,0.00,974.00,VWS V14.01,2013-05-06 17:58:00,
2013-05-06 14:03:00,69.5,32.2,30.17,SE,128,3.0,3.0,25,0.00,,---,0.00,965.00,VWS V14.01,2013-05-06 18:03:00,
2013-05-06 14:08:00,70.0,30.5,30.17,ESE,121,5.0,6.0,23,0.00,,---,0.00,962.00,VWS V14.01,2013-05-06 18:08:00,
2013-05-06 14:13:00,70.3,32.8,30.17,ESE,104,0.0,6.0,25,0.00,,---,0.00,946.00,VWS V14.01,2013-05-06 18:13:00,
2013-05-06 14:18:00,70.7,36.9,30.17,NE,46,2.0,2.0,29,0.00,,---,0.00,946.00,VWS V14.01,2013-05-06 18:18:00,
2013-05-06 14:23:00,71.4,32.8,30.16,East,97,4.0,4.0,24,0.00,,---,0.00,939.00,VWS V14.01,2013-05-06 18:23:00,
2013-05-06 14:28:00,70.7,35.1,30.17,SSE,154,0.0,5.0,27,0.00,,---,0.00,928.00,VWS V14.01,2013-05-06 18:28:00,
2013-05-06 14:33:00,70.5,32.0,30.16,SE,144,6.0,6.0,24,0.00,,---,0.00,918.00,VWS V14.01,2013-05-06 18:33:00,
2013-05-06 14:38:00,70.7,30.0,30.16,SE,142,0.0,6.0,22,0.00,,---,0.00,914.00,VWS V14.01,2013-05-06 18:38:00,
2013-05-06 14:43:00,71.7,37.8,30.16,WSW,253,0.0,6.0,29,0.00,,---,0.00,905.00,VWS V14.01,2013-05-06 18:43:00,
2013-05-06 14:48:00,71.5,33.9,30.16,South,170,0.0,5.0,25,0.00,,---,0.00,900.00,VWS V14.01,2013-05-06 18:48:00,
2013-05-06 14:53:00,71.2,31.5,30.16,SE,139,2.0,6.0,23,0.00,,---,0.00,889.00,VWS V14.01,2013-05-06 18:53:00,
2013-05-06 14:58:00,71.2,30.4,30.15,SW,216,0.0,6.0,22,0.00,,---,0.00,875.00,VWS V14.01,2013-05-06 18:58:00,
2013-05-06 15:03:00,72.2,33.4,30.15,SSE,163,0.0,3.0,24,0.00,,---,0.00,867.00,VWS V14.01,2013-05-06 19:03:00,
2013-05-06 15:08:00,72.0,32.2,30.15,WSW,252,0.0,3.0,23,0.00,,---,0.00,858.00,VWS V14.01,2013-05-06 19:08:00,
2013-05-06 15:13:00,72.2,30.1,30.15,South,179,0.0,3.0,21,0.00,,---,0.00,851.00,VWS V14.01,2013-05-06 19:13:00,
2013-05-06 15:18:00,71.9,29.9,30.15,WNW,290,0.0,4.0,21,0.00,,---,0.00,837.00,VWS V14.01,2013-05-06 19:18:00,
2013-05-06 15:23:00,71.5,32.8,30.15,SE,129,0.0,4.0,24,0.00,,---,0.00,828.00,VWS V14.01,2013-05-06 19:23:00,
2013-05-06 15:28:00,72.2,35.4,30.15,SE,139,4.0,4.0,26,0.00,,---,0.00,812.00,VWS V14.01,2013-05-06 19:28:00,
2013-05-06 15:33:00,71.9,29.9,30.14,SSE,167,0.0,2.0,21,0.00,,---,0.00,800.00,VWS V14.01,2013-05-06 19:33:00,
2013-05-06 15:38:00,72.2,31.3,30.14,South,169,0.0,4.0,22,0.00,,---,0.00,786.00,VWS V14.01,2013-05-06 19:38:00,
2013-05-06 15:43:00,71.5,30.7,30.14,SE,132,4.0,5.0,22,0.00,,---,0.00,772.00,VWS V14.01,2013-05-06 19:43:00,
2013-05-06 15:48:00,72.4,32.5,30.14,East,85,1.0,1.0,23,0.00,,---,0.00,759.00,VWS V14.01,2013-05-06 19:48:00,
2013-05-06 15:53:00,72.4,33.6,30.13,SSW,201,1.0,3.0,24,0.00,,---,0.00,538.00,VWS V14.01,2013-05-06 19:53:00,
2013-05-06 15:58:00,71.9,33.2,30.14,South,181,0.0,4.0,24,0.00,,---,0.00,76.00,VWS V14.01,2013-05-06 19:58:00,
2013-05-06 16:03:00,71.5,30.7,30.13,ESE,122,3.0,3.0,22,0.00,,---,0.00,74.00,VWS V14.01,2013-05-06 20:03:00,
2013-05-06 16:08:00,71.0,29.1,30.13,NE,40,0.0,3.0,21,0.00,,---,0.00,70.00,VWS V14.01,2013-05-06 20:08:00,
2013-05-06 16:13:00,71.7,30.9,30.13,SE,131,3.0,3.0,22,0.00,,---,0.00,207.00,VWS V14.01,2013-05-06 20:13:00,
2013-05-06 16:18:00,71.4,30.6,30.13,SSE,148,0.0,3.0,22,0.00,,---,0.00,58.00,VWS V14.01,2013-05-06 20:18:00,
2013-05-06 16:23:00,71.4,30.6,30.13,SSW,199,0.0,3.0,22,0.00,,---,0.00,63.00,VWS V14.01,2013-05-06 20:23:00,
2013-05-06 16:28:00,71.7,32.0,30.13,SSE,167,0.0,5.0,23,0.00,,---,0.00,54.00,VWS V14.01,2013-05-06 20:28:00,
2013-05-06 16:33:00,71.4,28.3,30.12,SSE,159,0.0,2.0,20,0.00,,---,0.00,51.00,VWS V14.01,2013-05-06 20:33:00,
2013-05-06 16:38:00,71.4,28.3,30.12,West,264,0.0,2.0,20,0.00,,---,0.00,53.00,VWS V14.01,2013-05-06 20:38:00,
2013-05-06 16:43:00,71.4,31.7,30.12,SSE,153,1.0,5.0,23,0.00,,---,0.00,51.00,VWS V14.01,2013-05-06 20:43:00,
2013-05-06 16:48:00,71.4,30.6,30.12,WSW,257,0.0,1.0,22,0.00,,---,0.00,53.00,VWS V14.01,2013-05-06 20:48:00,
2013-05-06 16:53:00,71.4,30.6,30.12,SW,232,0.0,5.0,22,0.00,,---,0.00,47.00,VWS V14.01,2013-05-06 20:53:00,
2013-05-06 16:58:00,71.5,32.8,30.12,SE,133,0.0,5.0,24,0.00,,---,0.00,58.00,VWS V14.01,2013-05-06 20:58:00,
2013-05-06 17:03:00,71.5,32.8,30.11,ESE,112,0.0,3.0,24,0.00,,---,0.00,46.00,VWS V14.01,2013-05-06 21:03:00,
2013-05-06 17:08:00,71.5,30.7,30.11,ESE,103,0.0,3.0,22,0.00,,---,0.00,46.00,VWS V14.01,2013-05-06 21:08:00,
2013-05-06 17:13:00,71.5,29.5,30.11,ESE,103,0.0,4.0,21,0.00,,---,0.00,47.00,VWS V14.01,2013-05-06 21:13:00,
2013-05-06 17:18:00,71.5,28.4,30.11,ESE,120,0.0,5.0,20,0.00,,---,0.00,118.00,VWS V14.01,2013-05-06 21:18:00,
2013-05-06 17:23:00,71.5,29.5,30.11,SE,140,0.0,5.0,21,0.00,,---,0.00,40.00,VWS V14.01,2013-05-06 21:23:00,
2013-05-06 17:28:00,71.5,29.5,30.11,SSE,162,0.0,5.0,21,0.00,,---,0.00,39.00,VWS V14.01,2013-05-06 21:28:00,
2013-05-06 17:33:00,71.4,29.5,30.11,South,180,1.0,1.0,21,0.00,,---,0.00,134.00,VWS V14.01,2013-05-06 21:33:00,
2013-05-06 17:38:00,71.4,28.3,30.11,SSW,192,0.0,2.0,20,0.00,,---,0.00,39.00,VWS V14.01,2013-05-06 21:38:00,
2013-05-06 17:43:00,71.2,30.4,30.11,West,264,0.0,6.0,22,0.00,,---,0.00,37.00,VWS V14.01,2013-05-06 21:43:00,
2013-05-06 17:48:00,71.0,30.3,30.11,SSE,153,2.0,5.0,22,0.00,,---,0.00,35.00,VWS V14.01,2013-05-06 21:48:00,
2013-05-06 17:53:00,71.0,29.1,30.11,SE,146,0.0,5.0,21,0.00,,---,0.00,33.00,VWS V14.01,2013-05-06 21:53:00,
2013-05-06 17:58:00,71.2,30.4,30.11,SE,146,2.0,5.0,22,0.00,,---,0.00,51.00,VWS V14.01,2013-05-06 21:58:00,
2013-05-06 18:03:00,70.8,29.0,30.11,SSE,158,1.0,4.0,21,0.00,,---,0.00,33.00,VWS V14.01,2013-05-06 22:03:00,
2013-05-06 18:08:00,70.7,28.9,30.10,SSE,152,0.0,4.0,21,0.00,,---,0.00,35.00,VWS V14.01,2013-05-06 22:08:00,
2013-05-06 18:13:00,70.5,32.0,30.11,SSE,148,0.0,4.0,24,0.00,,---,0.00,32.00,VWS V14.01,2013-05-06 22:13:00,
2013-05-06 18:18:00,70.3,28.5,30.11,ESE,123,3.0,5.0,21,0.00,,---,0.00,30.00,VWS V14.01,2013-05-06 22:18:00,
2013-05-06 18:23:00,70.2,29.6,30.10,SE,136,2.0,5.0,22,0.00,,---,0.00,26.00,VWS V14.01,2013-05-06 22:23:00,
2013-05-06 18:28:00,70.0,28.3,30.10,ESE,113,0.0,7.0,21,0.00,,---,0.00,25.00,VWS V14.01,2013-05-06 22:28:00,
2013-05-06 18:33:00,69.7,36.9,30.10,ESE,120,1.0,5.0,30,0.00,,---,0.00,25.00,VWS V14.01,2013-05-06 22:33:00,
2013-05-06 18:38:00,69.2,40.4,30.11,SSE,159,7.0,9.0,35,0.00,,---,0.00,25.00,VWS V14.01,2013-05-06 22:38:00,
2013-05-06 18:43:00,68.3,43.1,30.11,SE,136,10.0,10.0,40,0.00,,---,0.00,30.00,VWS V14.01,2013-05-06 22:43:00,
2013-05-06 18:48:00,67.7,43.2,30.11,ESE,121,9.0,9.0,41,0.00,,---,0.00,26.00,VWS V14.01,2013-05-06 22:48:00,
2013-05-06 18:53:00,67.2,42.7,30.11,SSE,148,6.0,9.0,41,0.00,,---,0.00,19.00,VWS V14.01,2013-05-06 22:53:00,
2013-05-06 18:58:00,66.7,43.5,30.11,SSE,149,0.0,9.0,43,0.00,,---,0.00,18.00,VWS V14.01,2013-05-06 22:58:00,
2013-05-06 19:03:00,66.3,43.8,30.11,SSE,155,4.0,9.0,44,0.00,,---,0.00,18.00,VWS V14.01,2013-05-06 23:03:00,
2013-05-06 19:08:00,66.0,43.5,30.11,ESE,123,5.0,9.0,44,0.00,,---,0.00,16.00,VWS V14.01,2013-05-06 23:08:00,
2013-05-06 19:13:00,65.7,43.8,30.11,SSE,149,2.0,9.0,45,0.00,,---,0.00,14.00,VWS V14.01,2013-05-06 23:13:00,
2013-05-06 19:18:00,65.2,44.5,30.11,SE,133,8.0,8.0,47,0.00,,---,0.00,12.00,VWS V14.01,2013-05-06 23:18:00,
2013-05-06 19:23:00,64.9,44.2,30.11,ESE,103,2.0,8.0,47,0.00,,---,0.00,12.00,VWS V14.01,2013-05-06 23:23:00,
2013-05-06 19:28:00,64.4,45.4,30.12,South,171,6.0,8.0,50,0.00,,---,0.00,11.00,VWS V14.01,2013-05-06 23:28:00,
2013-05-06 19:33:00,64.1,45.1,30.12,SSE,148,2.0,2.0,50,0.00,,---,0.00,9.00,VWS V14.01,2013-05-06 23:33:00,
2013-05-06 19:38:00,63.6,44.6,30.12,SE,140,8.0,8.0,50,0.00,,---,0.00,7.00,VWS V14.01,2013-05-06 23:38:00,
2013-05-06 19:43:00,63.1,45.2,30.12,South,170,8.0,8.0,52,0.00,,---,0.00,5.00,VWS V14.01,2013-05-06 23:43:00,
2013-05-06 19:48:00,62.6,45.7,30.12,ESE,121,5.0,5.0,54,0.00,,---,0.00,0.00,VWS V14.01,2013-05-06 23:48:00,
2013-05-06 19:53:00,62.3,45.0,30.12,East,91,0.0,7.0,53,0.00,,---,0.00,0.00,VWS V14.01,2013-05-06 23:53:00,
2013-05-06 19:58:00,62.0,44.7,30.12,SE,138,3.0,9.0,53,0.00,,---,0.00,0.00,VWS V14.01,2013-05-06 23:58:00,
2013-05-06 20:03:00,61.7,44.9,30.12,SE,135,0.0,2.0,54,0.00,,---,0.00,0.00,VWS V14.01,2013-05-07 00:03:00,
2013-05-06 20:08:00,61.4,45.1,30.12,SE,127,2.0,7.0,55,0.00,,---,0.00,0.00,VWS V14.01,2013-05-07 00:08:00,
2013-05-06 20:13:00,60.9,44.6,30.12,SE,143,2.0,7.0,55,0.00,,---,0.00,0.00,VWS V14.01,2013-05-07 00:13:00,
2013-05-06 20:18:00,60.6,45.3,30.13,SSE,156,3.0,3.0,57,0.00,,---,0.00,0.00,VWS V14.01,2013-05-07 00:18:00,
2013-05-06 20:23:00,60.1,45.3,30.13,ESE,117,0.0,7.0,58,0.00,,---,0.00,0.00,VWS V14.01,2013-05-07 00:23:00,
2013-05-06 20:28:00,59.8,45.0,30.13,SSE,163,6.0,7.0,58,0.00,,---,0.00,0.00,VWS V14.01,2013-05-07 00:28:00,
2013-05-06 20:34:00,59.5,45.2,30.13,ESE,102,0.0,4.0,59,0.00,,---,0.00,0.00,VWS V14.01,2013-05-07 00:34:00,
2013-05-06 20:39:00,59.2,45.3,30.13,SSE,157,1.0,8.0,60,0.00,,---,0.00,0.00,VWS V14.01,2013-05-07 00:39:00,
2013-05-06 20:44:00,58.6,45.2,30.13,ESE,112,0.0,8.0,61,0.00,,---,0.00,0.00,VWS V14.01,2013-05-07 00:44:00,
2013-05-06 20:49:00,58.2,44.8,30.13,ESE,110,0.0,4.0,61,0.00,,---,0.00,0.00,VWS V14.01,2013-05-07 00:49:00,
2013-05-06 20:54:00,57.7,44.8,30.14,SE,144,5.0,6.0,62,0.00,,---,0.00,0.00,VWS V14.01,2013-05-07 00:54:00,
2013-05-06 20:59:00,57.2,45.2,30.14,SE,130,0.0,6.0,64,0.00,,---,0.00,0.00,VWS V14.01,2013-05-07 00:59:00,
2013-05-06 21:04:00,57.1,45.0,30.14,ESE,113,0.0,2.0,64,0.00,,---,0.00,0.00,VWS V14.01,2013-05-07 01:04:00,
2013-05-06 21:09:00,56.6,45.0,30.14,ESE,117,0.0,2.0,65,0.00,,---,0.00,0.00,VWS V14.01,2013-05-07 01:09:00,
2013-05-06 21:14:00,56.4,44.8,30.14,ESE,116,0.0,2.0,65,0.00,,---,0.00,0.00,VWS V14.01,2013-05-07 01:14:00,
2013-05-06 21:19:00,56.2,44.6,30.14,ESE,118,0.0,3.0,65,0.00,,---,0.00,0.00,VWS V14.01,2013-05-07 01:19:00,
2013-05-06 21:24:00,56.1,44.5,30.15,SE,125,0.0,3.0,65,0.00,,---,0.00,0.00,VWS V14.01,2013-05-07 01:24:00,
2013-05-06 21:29:00,55.9,44.3,30.15,SE,131,0.0,3.0,65,0.00,,---,0.00,0.00,VWS V14.01,2013-05-07 01:29:00,
2013-05-06 21:34:00,55.8,44.6,30.15,ESE,123,1.0,3.0,66,0.00,,---,0.00,0.00,VWS V14.01,2013-05-07 01:34:00,
2013-05-06 21:39:00,55.8,45.0,30.15,East,96,0.0,3.0,67,0.00,,---,0.00,0.00,VWS V14.01,2013-05-07 01:39:00,
2013-05-06 21:44:00,55.6,44.8,30.16,SE,128,0.0,3.0,67,0.00,,---,0.00,0.00,VWS V14.01,2013-05-07 01:44:00,
2013-05-06 21:49:00,55.3,44.9,30.16,SSE,161,4.0,4.0,68,0.00,,---,0.00,0.00,VWS V14.01,2013-05-07 01:49:00,
2013-05-06 21:54:00,54.9,44.5,30.16,South,174,0.0,4.0,68,0.00,,---,0.00,0.00,VWS V14.01,2013-05-07 01:54:00,
2013-05-06 21:59:00,54.4,44.5,30.16,South,174,0.0,4.0,69,0.00,,---,0.00,0.00,VWS V14.01,2013-05-07 01:59:00,
2013-05-06 22:04:00,54.0,44.5,30.16,South,174,0.0,0.0,70,0.00,,---,0.00,0.00,VWS V14.01,2013-05-07 02:04:00,
2013-05-06 22:09:00,53.5,44.3,30.16,South,174,0.0,0.0,71,0.00,,---,0.00,0.00,VWS V14.01,2013-05-07 02:09:00,
2013-05-06 22:14:00,53.1,44.7,30.16,South,174,0.0,0.0,73,0.00,,---,0.00,0.00,VWS V14.01,2013-05-07 02:14:00,
2013-05-06 22:19:00,53.0,44.6,30.16,South,174,0.0,0.0,73,0.00,,---,0.00,0.00,VWS V14.01,2013-05-07 02:19:00,
2013-05-06 22:24:00,52.8,44.8,30.16,South,174,0.0,0.0,74,0.00,,---,0.00,0.00,VWS V14.01,2013-05-07 02:24:00,
2013-05-06 22:29:00,52.5,44.8,30.16,South,174,0.0,0.0,75,0.00,,---,0.00,0.00,VWS V14.01,2013-05-07 02:29:00,
2013-05-06 22:34:00,52.2,44.5,30.16,South,174,0.0,0.0,75,0.00,,---,0.00,0.00,VWS V14.01,2013-05-07 02:34:00,
2013-05-06 22:39:00,52.1,44.4,30.16,South,174,0.0,0.0,75,0.00,,---,0.00,0.00,VWS V14.01,2013-05-07 02:39:00,
2013-05-06 22:44:00,51.8,44.5,30.16,South,174,0.0,0.0,76,0.00,,---,0.00,0.00,VWS V14.01,2013-05-07 02:44:00,
2013-05-06 22:49:00,51.2,44.6,30.16,South,174,0.0,0.0,78,0.00,,---,0.00,0.00,VWS V14.01,2013-05-07 02:49:00,
2013-05-06 22:54:00,50.6,44.3,30.15,South,174,0.0,0.0,79,0.00,,---,0.00,0.00,VWS V14.01,2013-05-07 02:54:00,
2013-05-06 22:59:00,50.3,44.4,30.15,South,174,0.0,0.0,80,0.00,,---,0.00,0.00,VWS V14.01,2013-05-07 02:59:00,
2013-05-06 23:04:00,50.1,44.5,30.15,South,174,0.0,0.0,81,0.00,,---,0.00,0.00,VWS V14.01,2013-05-07 03:04:00,
2013-05-06 23:09:00,50.0,44.1,30.15,South,174,0.0,0.0,80,0.00,,---,0.00,0.00,VWS V14.01,2013-05-07 03:09:00,
2013-05-06 23:14:00,49.7,44.1,30.15,South,174,0.0,0.0,81,0.00,,---,0.00,0.00,VWS V14.01,2013-05-07 03:14:00,
2013-05-06 23:19:00,49.5,44.2,30.15,South,174,0.0,0.0,82,0.00,,---,0.00,0.00,VWS V14.01,2013-05-07 03:19:00,
2013-05-06 23:24:00,49.3,44.0,30.15,South,174,0.0,0.0,82,0.00,,---,0.00,0.00,VWS V14.01,2013-05-07 03:24:00,
2013-05-06 23:29:00,49.5,44.6,30.15,South,174,0.0,0.0,83,0.00,,---,0.00,0.00,VWS V14.01,2013-05-07 03:29:00,
2013-05-06 23:34:00,49.7,44.8,30.15,South,174,0.0,0.0,83,0.00,,---,0.00,0.00,VWS V14.01,2013-05-07 03:34:00,
2013-05-06 23:39:00,49.5,44.6,30.15,South,174,0.0,0.0,83,0.00,,---,0.00,0.00,VWS V14.01,2013-05-07 03:39:00,
2013-05-06 23:44:00,49.3,44.4,30.15,South,174,0.0,0.0,83,0.00,,---,0.00,0.00,VWS V14.01,2013-05-07 03:44:00,
2013-05-06 23:49:00,49.1,44.8,30.15,South,174,0.0,0.0,85,0.00,,---,0.00,0.00,VWS V14.01,2013-05-07 03:49:00,
2013-05-06 23:54:00,48.7,44.4,30.15,South,174,0.0,0.0,85,0.00,,---,0.00,0.00,VWS V14.01,2013-05-07 03:54:00,
2013-05-06 23:59:00,48.5,44.2,30.15,South,174,0.0,0.0,85,0.00,,---,0.00,0.00,VWS V14.01,2013-05-07 03:59:00,